Weather History for Eureka Airport, NV

Change the Weather History Date:

Sunday, December 9, 2012

  Actual Average Record
Temperature  
Mean Temperature 26 °F -  
Max Temperature 35 °F - - ()
Min Temperature 17 °F - - ()
Degree Days  
Heating Degree Days 39    
Moisture  
Dew Point 15 °F    
Average Humidity 67    
Maximum Humidity 86    
Minimum Humidity 41    
Precipitation  
Precipitation 0.00 in - - ()
Sea Level Pressure  
Sea Level Pressure 30.26 in    
Wind  
Wind Speed 5 mph (North)    
Max Wind Speed 16 mph    
Max Gust Speed 23 mph    
Visibility 10 miles    
Events      
T = Trace of Precipitation, MM = Missing Value Source: NWS Daily Summary

Daily Weather History Graph

Daily Weather History Graph

Search for Another Location

Airport:

Trip Planner

Search our weather history database for the weather conditions in past years. The results will help you decide how hot, cold, wet, or windy it might be!

Date:

Astronomy

Dec. 09, 2012 Rise Set
Actual Time 6:53 AM PST 4:19 PM PST
Civil Twilight 6:23 AM PST 4:50 PM PST
Nautical Twilight 5:49 AM PST 5:23 PM PST
Astronomical Twilight 5:16 AM PST 5:56 PM PST
Moon 2:32 AM PST (12/9) 1:29 PM PST (12/9)
Length of Visible Light 10h 26m
Length of Day
9h 26m
Waning Crescent, 17% of the Moon is Illuminated
Dec 9
Waning Crescent
Dec 13
New
Dec 19
First Quarter
Dec 28
Full
Jan 4
Last Quarter

Hourly Weather History & Observations

Time (PST) Temp. Windchill Dew Point Humidity Pressure Visibility Wind Dir Wind Speed Gust Speed Precip Events Conditions
12:00 AM 26.6 °F 22.6 °F 17.6 °F 69% 30.14 in 10.0 mi NE 3.5 mph - N/A   Scattered Clouds
12:20 AM 24.8 °F 20.5 °F 17.6 °F 74% 30.13 in 10.0 mi NNE 3.5 mph - N/A   Mostly Cloudy
12:40 AM 24.8 °F - 15.8 °F 69% 30.13 in 10.0 mi Calm Calm - N/A   Partly Cloudy
1:00 AM 24.8 °F - 15.8 °F 69% 30.12 in 10.0 mi Calm Calm - N/A   Clear
1:20 AM 24.8 °F - 15.8 °F 69% 30.12 in 10.0 mi Calm Calm - N/A   Scattered Clouds
1:40 AM 23.0 °F 18.4 °F 15.8 °F 74% 30.12 in 10.0 mi South 3.5 mph - N/A   Clear
2:00 AM 23.0 °F 18.4 °F 15.8 °F 74% 30.13 in 10.0 mi SSW 3.5 mph - N/A   Clear
2:20 AM 23.0 °F - 15.8 °F 74% 30.14 in 10.0 mi Calm Calm - N/A   Clear
2:40 AM 23.0 °F - 17.6 °F 80% 30.13 in 10.0 mi Calm Calm - N/A   Clear
3:00 AM 23.0 °F 18.4 °F 17.6 °F 80% 30.14 in 10.0 mi WSW 3.5 mph - N/A   Partly Cloudy
3:20 AM 23.0 °F 18.4 °F 17.6 °F 80% 30.13 in 10.0 mi SW 3.5 mph - N/A   Clear
4:00 AM 23.0 °F - 17.6 °F 80% 30.14 in 10.0 mi Calm Calm - N/A   Clear
4:20 AM 23.0 °F - 17.6 °F 80% 30.15 in 10.0 mi Calm Calm - N/A   Clear
4:40 AM 24.8 °F 17.9 °F 17.6 °F 74% 30.15 in 10.0 mi North 5.8 mph - N/A   Clear
5:00 AM 23.0 °F 17.0 °F 17.6 °F 80% 30.16 in 10.0 mi NNE 4.6 mph - N/A   Clear
5:20 AM 23.0 °F - 17.6 °F 80% 30.17 in 10.0 mi Calm Calm - N/A   Clear
5:40 AM 23.0 °F - 15.8 °F 74% 30.17 in 10.0 mi Calm Calm - N/A   Partly Cloudy
6:00 AM 19.4 °F 9.5 °F 15.8 °F 86% 30.19 in 10.0 mi North 8.1 mph - N/A   Partly Cloudy
6:40 AM 19.4 °F 10.4 °F 15.8 °F 86% 30.21 in 10.0 mi NNW 6.9 mph - N/A   Scattered Clouds
7:00 AM 19.4 °F 12.8 °F 14.0 °F 80% 30.22 in 10.0 mi NNW 4.6 mph - N/A   Mostly Cloudy
7:20 AM 19.4 °F 14.3 °F 14.0 °F 80% 30.22 in 10.0 mi NW 3.5 mph - N/A   Overcast
7:40 AM 19.4 °F 11.5 °F 15.8 °F 86% 30.24 in 10.0 mi North 5.8 mph - N/A   Mostly Cloudy
8:00 AM 23.0 °F 18.4 °F 15.8 °F 74% 30.25 in 10.0 mi NNW 3.5 mph - N/A   Mostly Cloudy
8:20 AM 24.8 °F 16.1 °F 17.6 °F 74% 30.26 in 10.0 mi North 8.1 mph - N/A   Overcast
8:40 AM 28.4 °F 19.7 °F 17.6 °F 64% 30.27 in 10.0 mi NNW 9.2 mph - N/A   Mostly Cloudy
9:00 AM 30.2 °F 21.9 °F 15.8 °F 55% 30.28 in 10.0 mi NNW 9.2 mph - N/A   Partly Cloudy
9:20 AM 32.0 °F 23.6 °F 15.8 °F 51% 30.29 in 10.0 mi North 10.4 mph - N/A   Mostly Cloudy
9:40 AM 32.0 °F 22.5 °F 15.8 °F 51% 30.29 in 10.0 mi North 12.7 mph 17.3 mph N/A   Mostly Cloudy
10:00 AM 32.0 °F 21.6 °F 15.8 °F 51% 30.30 in 10.0 mi North 15.0 mph - N/A   Partly Cloudy
10:20 AM 32.0 °F 21.2 °F 15.8 °F 51% 30.30 in 10.0 mi North 16.1 mph 21.9 mph N/A   Partly Cloudy
10:40 AM 32.0 °F 21.2 °F 15.8 °F 51% 30.30 in 10.0 mi North 16.1 mph 20.7 mph N/A   Clear
11:00 AM 32.0 °F 22.1 °F 15.8 °F 51% 30.30 in 10.0 mi North 13.8 mph 23.0 mph N/A   Partly Cloudy
11:20 AM 33.8 °F 24.8 °F 15.8 °F 48% 30.30 in 10.0 mi NNW 12.7 mph 21.9 mph N/A   Partly Cloudy
11:40 AM 35.6 °F 27.5 °F 15.8 °F 44% 30.31 in 10.0 mi North 11.5 mph 19.6 mph N/A   Mostly Cloudy
12:00 PM 35.6 °F 28.0 °F 15.8 °F 44% 30.30 in 10.0 mi North 10.4 mph 18.4 mph N/A   Mostly Cloudy
12:40 PM 35.6 °F 27.1 °F 15.8 °F 44% 30.30 in 10.0 mi North 12.7 mph 18.4 mph N/A   Scattered Clouds
1:00 PM 35.6 °F 27.5 °F 15.8 °F 44% 30.29 in 10.0 mi North 11.5 mph 21.9 mph N/A   Scattered Clouds
1:20 PM 35.6 °F 26.6 °F 15.8 °F 44% 30.28 in 10.0 mi North 13.8 mph 18.4 mph N/A   Clear
1:30 PM 35.6 °F 26.6 °F 15.8 °F 44% 30.29 in 10.0 mi North 13.8 mph - N/A   Clear
3:20 PM 35.6 °F 27.1 °F 14.0 °F 41% 30.29 in 10.0 mi North 12.7 mph - N/A   Clear
3:40 PM 33.8 °F 27.0 °F 14.0 °F 44% 30.30 in 10.0 mi NNE 8.1 mph - N/A   Clear
4:00 PM 32.0 °F 24.2 °F 14.0 °F 48% 30.32 in 10.0 mi NNE 9.2 mph - N/A   Clear
4:20 PM 30.2 °F 26.7 °F 14.0 °F 51% 30.31 in 10.0 mi East 3.5 mph - N/A   Clear
4:40 PM 26.6 °F 19.1 °F 14.0 °F 59% 30.31 in 10.0 mi NE 6.9 mph - N/A   Clear
5:00 PM 26.6 °F 20.0 °F 14.0 °F 59% 30.33 in 10.0 mi NE 5.8 mph - N/A   Clear
5:20 PM 24.8 °F 16.9 °F 14.0 °F 64% 30.32 in 10.0 mi North 6.9 mph - N/A   Clear
5:40 PM 24.8 °F 20.5 °F 14.0 °F 64% 30.32 in 10.0 mi NNE 3.5 mph - N/A   Clear
6:00 PM 24.8 °F 19.1 °F 14.0 °F 64% 30.34 in 10.0 mi NNE 4.6 mph - N/A   Clear
6:40 PM 23.0 °F 15.8 °F 14.0 °F 68% 30.34 in 10.0 mi NNW 5.8 mph - N/A   Clear
7:00 PM 19.4 °F 10.4 °F 12.2 °F 74% 30.35 in 10.0 mi NNW 6.9 mph - N/A   Clear
7:20 PM 19.4 °F - 14.0 °F 80% 30.35 in 10.0 mi Calm Calm - N/A   Clear
7:40 PM 19.4 °F - 12.2 °F 74% 30.35 in 10.0 mi Calm Calm - N/A   Clear
8:20 PM 17.6 °F 12.3 °F 10.4 °F 73% 30.35 in 10.0 mi SSW 3.5 mph - N/A   Clear
8:40 PM 17.6 °F 7.3 °F 12.2 °F 79% 30.35 in 10.0 mi SSW 8.1 mph - N/A   Scattered Clouds
9:00 PM 17.6 °F 9.3 °F 12.2 °F 79% 30.35 in 10.0 mi SSW 5.8 mph - N/A   Mostly Cloudy
9:20 PM 17.6 °F 10.7 °F 12.2 °F 79% 30.35 in 10.0 mi South 4.6 mph - N/A   Scattered Clouds
9:40 PM 17.6 °F - 12.2 °F 79% 30.34 in 10.0 mi Calm Calm - N/A   Partly Cloudy
10:00 PM 19.4 °F - 14.0 °F 80% 30.35 in 10.0 mi Calm Calm - N/A   Scattered Clouds
10:20 PM 19.4 °F - 14.0 °F 80% 30.36 in 10.0 mi Calm Calm - N/A   Overcast
10:40 PM 21.2 °F - 14.0 °F 74% 30.36 in 10.0 mi Calm Calm - N/A   Overcast
11:00 PM 23.0 °F - 15.8 °F 74% 30.36 in 10.0 mi Calm Calm - N/A   Overcast
11:20 PM 23.0 °F - 15.8 °F 74% 30.35 in 10.0 mi Calm Calm - N/A   Overcast